Location: Huntsville
(41.2590°N, 111.7678°W)
Time: 22:24:57
(UTC+00:00)

SR - Pass Details

Date: 17 June 2021
Orbit: 577 x 878 km, 66.7° (Epoch: 28 July)

Event Time Altitude Azimuth Distance (km) Brightness Sun altitude
Rises 09:22:38 0° 330° (NNW) 3,293 ? -20.1°
Reaches altitude 10° 09:25:09 10° 332° (NNW) 2,313 ? -19.9°
Maximum altitude 09:30:27 81° 60° (ENE) 732 ? -19.4°
Enters shadow 09:34:44 13° 147° (SSE) 1,912 ? -19.0°
